Weather History for Huntsville Madison, AL

Change the Weather History Date:

Wednesday, June 18, 2014

  Actual Average (KHSV) Record (KHSV)
Temperature  
Mean Temperature 80 °F 78 °F  
Max Temperature 91 °F 89 °F 104 °F (1936)
Min Temperature 68 °F 68 °F 52 °F (1941)
Degree Days  
Heating Degree Days 0 0  
Month to date heating degree days 0  
Since 1 June heating degree days 0  
Since 1 July heating degree days 3001  
Cooling Degree Days 14 13  
Month to date cooling degree days 208  
Year to date cooling degree days 471  
Since 1 June cooling degree days 208  
Growing Degree Days 30 (Base 50)    
Moisture  
Dew Point 63 °F    
Average Humidity 59    
Maximum Humidity 88    
Minimum Humidity 29    
Precipitation  
Precipitation 0.00 in 0.14 in 1.26 in (1939)
Month to date precipitation 2.54  
Year to date precipitation 26.91  
Snow  
Snow 0.00 in - - ()
Month to date snowfall  
Since 1 June snowfall  
Since 1 July snowfall  
Snow Depth -    
Sea Level Pressure  
Sea Level Pressure 30.12 in    
Wind  
Wind Speed 2 mph (SSW)    
Max Wind Speed 9 mph    
Max Gust Speed -    
Visibility 9 miles    
Events      
T = Trace of Precipitation, MM = Missing Value Source: NWS Daily Summary

Daily Weather History Graph

Daily Weather History Graph

Search for Another Location

Airport:

Trip Planner

Search our weather history database for the weather conditions in past years. The results will help you decide how hot, cold, wet, or windy it might be!

Date:

Astronomy

Jun. 18, 2014 Rise Set
Actual Time 5:32 AM CDT 8:02 PM CDT
Civil Twilight 5:02 AM CDT 8:32 PM CDT
Nautical Twilight 4:26 AM CDT 9:08 PM CDT
Astronomical Twilight 3:45 AM CDT 9:49 PM CDT
Moon No Moon Rise 11:41 AM CDT (6/18)
Length of Visible Light 15h 29m
Length of Day
14h 29m
Waning Gibbous, 62% of the Moon is Illuminated
Jun 18
Waning Gibbous
Jun 19
Last Quarter
Jun 27
New
Jul 5
First Quarter
Jul 12
Full

Hourly Weather History & Observations

Time (CDT) Temp. Heat Index Dew Point Humidity Pressure Visibility Wind Dir Wind Speed Gust Speed Precip Events Conditions
12:15 AM 71.6 °F - 66.2 °F 83% 30.13 in 10.0 mi Calm Calm - N/A   Clear
12:35 AM 71.6 °F - 66.2 °F 83% 30.13 in 10.0 mi Calm Calm - N/A   Clear
1:15 AM 71.6 °F - 68.0 °F 88% 30.12 in 10.0 mi Calm Calm - N/A   Clear
1:35 AM 71.6 °F - 66.2 °F 83% 30.12 in 10.0 mi Calm Calm - N/A   Clear
1:55 AM 69.8 °F - 66.2 °F 88% 30.12 in 7.0 mi Calm Calm - N/A   Clear
2:15 AM 69.8 °F - 66.2 °F 88% 30.11 in 10.0 mi Calm Calm - N/A   Clear
2:35 AM 69.8 °F - 64.4 °F 83% 30.11 in 10.0 mi Calm Calm - N/A   Clear
2:55 AM 69.8 °F - 64.4 °F 83% 30.10 in 5.0 mi Calm Calm - N/A   Clear
3:15 AM 69.8 °F - 64.4 °F 83% 30.11 in 5.0 mi Calm Calm - N/A   Clear
3:35 AM 69.8 °F - 66.2 °F 88% 30.11 in 7.0 mi Calm Calm - N/A   Clear
3:55 AM 69.8 °F - 66.2 °F 88% 30.11 in 7.0 mi Calm Calm - N/A   Clear
4:15 AM 69.8 °F - 64.4 °F 83% 30.11 in 7.0 mi Calm Calm - N/A   Clear
4:35 AM 68.0 °F - 64.4 °F 88% 30.11 in 10.0 mi Calm Calm - N/A   Clear
4:55 AM 68.0 °F - 64.4 °F 88% 30.12 in 5.0 mi Calm Calm - N/A   Clear
5:15 AM 69.8 °F - 64.4 °F 83% 30.12 in 7.0 mi Calm Calm - N/A   Clear
5:35 AM 69.8 °F - 64.4 °F 83% 30.13 in 5.0 mi Calm Calm - N/A   Clear
5:55 AM 69.8 °F - 64.4 °F 83% 30.13 in 7.0 mi Calm Calm - N/A   Clear
6:15 AM 68.0 °F - 64.4 °F 88% 30.13 in 10.0 mi Calm Calm - N/A   Clear
6:35 AM 69.8 °F - 66.2 °F 88% 30.14 in 5.0 mi Calm Calm - N/A   Clear
6:55 AM 71.6 °F - 68.0 °F 88% 30.14 in 7.0 mi ESE 3.5 mph - N/A   Clear
7:15 AM 73.4 °F - 68.0 °F 83% 30.14 in 7.0 mi Calm Calm - N/A   Clear
7:35 AM 75.2 °F - 68.0 °F 78% 30.15 in 10.0 mi Calm Calm - N/A   Clear
7:55 AM 77.0 °F - 68.0 °F 74% 30.15 in 10.0 mi Calm Calm - N/A   Clear
8:15 AM 78.8 °F - 68.0 °F 69% 30.15 in 10.0 mi Calm Calm - N/A   Clear
8:35 AM 80.6 °F 82.7 °F 66.2 °F 61% 30.15 in 10.0 mi Calm Calm - N/A   Clear
9:15 AM 82.4 °F 83.9 °F 64.4 °F 54% 30.16 in 10.0 mi Calm Calm - N/A   Clear
9:35 AM 84.2 °F 85.6 °F 64.4 °F 51% 30.16 in 10.0 mi Calm Calm - N/A   Clear
9:55 AM 86.0 °F 87.3 °F 64.4 °F 48% 30.16 in 10.0 mi South 3.5 mph - N/A   Clear
10:15 AM 86.0 °F 87.3 °F 64.4 °F 48% 30.17 in 10.0 mi SSE 3.5 mph - N/A   Scattered Clouds
10:35 AM 87.8 °F 89.4 °F 64.4 °F 46% 30.17 in 10.0 mi West 5.8 mph - N/A   Scattered Clouds
10:55 AM 86.0 °F 87.3 °F 64.4 °F 48% 30.17 in 10.0 mi West 4.6 mph - N/A   Scattered Clouds
11:15 AM 87.8 °F 87.6 °F 60.8 °F 40% 30.16 in 10.0 mi Calm Calm - N/A   Clear
11:35 AM 87.8 °F 87.6 °F 60.8 °F 40% 30.16 in 10.0 mi Calm Calm - N/A   Clear
11:55 AM 89.6 °F 89.5 °F 60.8 °F 38% 30.16 in 10.0 mi Calm Calm - N/A   Scattered Clouds
12:15 PM 89.6 °F 89.5 °F 60.8 °F 38% 30.15 in 10.0 mi WSW 5.8 mph - N/A   Clear
12:35 PM 87.8 °F 87.6 °F 60.8 °F 40% 30.15 in 10.0 mi SW 6.9 mph - N/A   Clear
1:15 PM 89.6 °F 88.9 °F 59.0 °F 36% 30.13 in 10.0 mi SW 8.1 mph - N/A   Clear
1:35 PM 89.6 °F 87.7 °F 55.4 °F 31% 30.13 in 10.0 mi South 6.9 mph - N/A   Clear
1:55 PM 91.4 °F 89.4 °F 55.4 °F 29% 30.12 in 10.0 mi SW 6.9 mph - N/A   Clear
2:35 PM 89.6 °F 88.9 °F 59.0 °F 36% 30.10 in 10.0 mi West 5.8 mph - N/A   Clear
2:55 PM 89.6 °F 87.7 °F 55.4 °F 31% 30.10 in 10.0 mi SSW 5.8 mph - N/A   Clear
3:35 PM 91.4 °F 89.4 °F 55.4 °F 29% 30.10 in 10.0 mi SSW 6.9 mph - N/A   Clear
3:55 PM 91.4 °F 89.4 °F 55.4 °F 29% 30.09 in 10.0 mi SW 8.1 mph - N/A   Clear
4:15 PM 91.4 °F 89.9 °F 57.2 °F 31% 30.08 in 10.0 mi SW 9.2 mph - N/A   Clear
4:35 PM 91.4 °F 90.7 °F 59.0 °F 34% 30.08 in 10.0 mi WSW 6.9 mph - N/A   Clear
4:55 PM 91.4 °F 90.7 °F 59.0 °F 34% 30.08 in 10.0 mi West 4.6 mph - N/A   Clear
5:15 PM 91.4 °F 90.7 °F 59.0 °F 34% 30.08 in 10.0 mi SW 4.6 mph - N/A   Clear
5:35 PM 91.4 °F 89.9 °F 57.2 °F 31% 30.08 in 10.0 mi South 4.6 mph - N/A   Scattered Clouds
5:55 PM 89.6 °F 88.9 °F 59.0 °F 36% 30.08 in 10.0 mi SW 3.5 mph - N/A   Scattered Clouds
6:15 PM 89.6 °F 88.9 °F 59.0 °F 36% 30.08 in 10.0 mi SW 3.5 mph - N/A   Clear
6:35 PM 89.6 °F 88.9 °F 59.0 °F 36% 30.08 in 10.0 mi SSE 4.6 mph - N/A   Clear
6:55 PM 87.8 °F 87.1 °F 59.0 °F 38% 30.09 in 10.0 mi SSE 4.6 mph - N/A   Clear
7:15 PM 87.8 °F 87.6 °F 60.8 °F 40% 30.08 in 10.0 mi SSE 3.5 mph - N/A   Clear
7:35 PM 86.0 °F 86.6 °F 62.6 °F 45% 30.07 in 10.0 mi SSW 5.8 mph - N/A   Clear
7:55 PM 82.4 °F 83.9 °F 64.4 °F 54% 30.08 in 10.0 mi South 5.8 mph - N/A   Clear
8:15 PM 82.4 °F 83.9 °F 64.4 °F 54% 30.09 in 10.0 mi South 4.6 mph - N/A   Clear
8:35 PM 80.6 °F 82.3 °F 64.4 °F 58% 30.09 in 10.0 mi Calm Calm - N/A   Clear
8:55 PM 80.6 °F 82.3 °F 64.4 °F 58% 30.10 in 10.0 mi South 3.5 mph - N/A   Clear
9:15 PM 80.6 °F 81.8 °F 62.6 °F 54% 30.11 in 10.0 mi SE 3.5 mph - N/A   Clear
9:35 PM 78.8 °F - 64.4 °F 61% 30.12 in 10.0 mi Calm Calm - N/A   Clear
9:55 PM 78.8 °F - 64.4 °F 61% 30.12 in 10.0 mi Calm Calm - N/A   Clear
10:15 PM 75.2 °F - 64.4 °F 69% 30.12 in 10.0 mi Calm Calm - N/A   Clear
10:35 PM 77.0 °F - 64.4 °F 65% 30.13 in 10.0 mi Calm Calm - N/A   Clear
10:55 PM 77.0 °F - 64.4 °F 65% 30.13 in 10.0 mi Calm Calm - N/A   Clear
11:15 PM 77.0 °F - 64.4 °F 65% 30.13 in 10.0 mi Calm Calm - N/A   Clear
11:35 PM 77.0 °F - 64.4 °F 65% 30.13 in 10.0 mi SE 4.6 mph - N/A   Scattered Clouds
11:55 PM 77.0 °F - 64.4 °F 65% 30.13 in 10.0 mi SE 3.5 mph - N/A   Scattered Clouds